Regional Weather Roundup
Issued by NWS Wakefield, VA

Home | Current Version | Previous Version | Graphics & Text | Print | Product List | Glossary On
Versions: 1 2 3 4 5 6 7 8 9 10 11 12 13 14 15 16 17 18 19 20 21 22 23 24 25 26 27 28 29 30 31 32 33 34 35 36 37 38 39 40 41 42 43 44 45 46 47 48 49 50
000
ASUS41 KAKQ 291110
RWRAKQ

REGIONAL WEATHER ROUNDUP
NATIONAL WEATHER SERVICE WAKEFIELD VA
700 AM EDT TUE JUL 29 2014

Note: "fair" indicates few or no clouds below 12,000 feet with no
significant weather and/or obstructions to visibility. * = Denotes
station may not report precipitation (e.g., rain,snow,etc.),
thunder or fog.

VAZ042-051-052>054-056-291200-
NORTHERN VIRGINIA

CITY           SKY/WX    TMP DP  RH WIND       PRES   REMARKS
WASH NATIONAL  MOCLDY    67  53  61 NW8       29.93R
DULLES         PTCLDY    57  51  80 W3        29.94R
FORT BELVOIR   MOCLDY    63  53  67 NW9       29.94R
QUANTICO       MOCLDY    63  53  70 NW9       29.94R
FREDERICKSBRG* CLEAR     63  55  75 NW5       29.93R
STAFFORD*      CLEAR     57  57 100 NW6       29.98R
WARRENTON      CLEAR     57  57 100 CALM      29.94R
CULPEPER*      CLEAR    N/A N/A N/A CALM      29.95R
MANASSAS*      CLEAR     57  57 100 CALM      29.95
LEESBURG*      CLEAR     59  54  82 CALM      29.95R
WINCHESTER     CLEAR     55  50  82 NW5       29.95S
$$

VAZ048-049-060>072-079>083-291200-
CENTRAL AND SOUTH CENTRAL VIRGINIA...AND NORTH CENTRAL NORTH CAROLINA

CITY           SKY/WX    TMP DP  RH WIND       PRES   REMARKS
RICHMOND       MOCLDY    65  56  72 NW7       29.93R
CHESTERFIELD*  CLOUDY    64  46  52 N6        29.96R
HANOVER        MOCLDY    62  54  74 VRB3      29.95R
TAPPAHANNOCK*  CLEAR     62  54  74 CALM      29.93R
CHARLOTTSVILLE CLEAR     56  52  86 NW3       29.96R
ORANGE*        CLEAR     54  50  87 CALM      29.97R
LOUISA*        CLOUDY    57  54  88 W3        29.94R
FARMVILLE*     PTCLDY    59  54  82 CALM      29.94R
SOUTH HILL*    CLOUDY    64  61  88 N3        30.00R
ROANOKE RAPIDS NOT AVBL
RALEIGH        MOCLDY    66  57  72 CALM      29.94R
$$

VAZ088>098-291200-
SOUTHEAST VIRGINIA

CITY           SKY/WX    TMP DP  RH WIND       PRES   REMARKS
NORFOLK        CLEAR     69  60  73 NW6       29.90R
VIRGINIA BEACH PTCLDY    70  62  76 N7        29.89R
NORFOLK NAVAL  PTCLDY    71  60  68 N10       29.92R
WEST POINT*    PTCLDY    67  57  72 N6        29.93R
NEWPORT NEWS   PTCLDY    69  60  73 NW6       29.91R
LANGLEY AFB    MOCLDY    68  61  78 NW6       29.90R
FORT EUSTIS    MOCLDY    68  58  71 VRB6      29.90R
WILLIAMSBURG*  MOCLDY    66  61  82 N6        29.92R
FRANKLIN*      CLOUDY    64  61  88 CALM      29.93R
WAKEFIELD      CLOUDY    64  59  83 CALM      29.93R
$$

VAZ020-022-025-037-045-291200-
WESTERN AND SOUTHWEST VIRGINIA

CITY           SKY/WX    TMP DP  RH WIND       PRES   REMARKS
STAUNTON*      PTCLDY    52  49  91 CALM      29.99R FOG
HOT SPRINGS VA CLEAR     49  47  91 W3        30.03R
LYNCHBURG      PTCLDY    57  55  93 CALM      29.98R
DANVILLE       CLOUDY    63  58  83 W3        29.96R
MARTINSVILLE   CLOUDY    58  57  96 CALM      30.00R
ROANOKE        CLOUDY    61  55  81 CALM      29.99R
BLACKSBURG     CLOUDY    59  59 100 CALM      30.03R
DUBLIN*        CLOUDY    62  59  91 S3        30.02R
MARION*        CLOUDY   N/A N/A N/A W5        30.05R HAZE
HILLSVILLE*    PTCLDY    56  54  92 W3        30.03R
RICHLANDS*     PTSUNNY   60  57  89 CALM      30.03R
WISE*          CLOUDY    57  55  94 CALM      30.05R
ABINGDON*      MOCLDY    60  58  91 SW3       30.02R
$$

MDZ021>025-VAZ099-100-291200-
SOUTHERN MARYLAND AND THE DELMARVA PENINSULA

CITY           SKY/WX    TMP DP  RH WIND       PRES   REMARKS
PATUXENT RIVER PTCLDY    64  57  78 W9        29.91R
BAY BRIDGE APT   N/A     64  59  82 NW9       29.90R
LEONARDTOWN    CLEAR     59  55  88 W3        29.93R
DOVER          SUNNY     63  58  83 NW7       29.87R
GEORGETOWN     SUNNY     64  59  83 VRB5      29.89R
EASTON         PTCLDY    66  59  77 CALM      29.93R
CAMBRIDGE      MOCLDY    70  57  64 N7        29.89R
SALISBURY      CLEAR     68  59  73 MISG        N/A
OCEAN CITY     SUNNY     64  61  90 NW6       29.87R
WALLOPS ISLAND CLEAR     67  61  81 NE7       29.89R
ACCOMACK*        N/A     68  59  73 NE6       29.89R
$$

NCZ012>017-030>032-291200-
EASTERN NORTH CAROLINA

CITY           SKY/WX    TMP DP  RH WIND       PRES   REMARKS
ELIZABETH CITY MOCLDY    69  61  75 N12       29.89R
AHOSKIE*       CLOUDY    63  60  87 CALM      29.93R
EDENTON*       CLOUDY    66  61  82 N6        29.90S
CURRITUCK*     MOCLDY    67  59  76 NW5       29.90R
KILL DEVIL HLS PTCLDY    73  64  73 N6        29.86S
MANTEO         NOT AVBL
CAPE HATTERAS  PTCLDY    75  67  76 NE6       29.86S
GOLDSBORO      CLOUDY    69  62  79 N6        29.90R
WASHINGTON     CLOUDY    67  61  81 N3        29.91R
GREENVILLE     CLOUDY    66  61  82 N3        29.94R
NEW BERN       CLOUDY    71  62  73 N6        29.91R
WILMINGTON     PTCLDY    69  63  81 N5        29.89R
$$

VAZ048-291200-
ELSEWHERE

CITY           SKY/WX    TMP DP  RH WIND       PRES   REMARKS
HARRISBURG PA  CLEAR     62  56  80 N3        29.89R
BALTIMORE      MOCLDY    61  57  87 W7        29.90R
ANNAPOLIS      MOCLDY    65  58  78 W6        29.90R
ANDREWS AFB    CLOUDY    65  54  68 NW10      29.92R
WILMINGTON DE  SUNNY     62  56  80 NW5       29.88R
PHILADELPHIA   MOSUNNY   64  54  69 NW6       29.88R
WILDWOOD NJ*   SUNNY     64  55  72 N5        29.88R
ATLANTIC CITY  SUNNY     62  57  83 W5        29.86R
HENDERSON NC   MOCLDY    62  56  82 N3        29.95R
GREENSBORO     MOCLDY    62  56  80 CALM      29.96R
ROCKY MOUNT    CLOUDY    66  59  78 NE5       29.93R
FAYETTEVILLE   CLOUDY    70  59  68 N8        29.92R
CHARLOTTE      MOCLDY    63  57  81 N3        29.97R
$$

VAZ100-291200-
MARINE

STATION/POSITION TIME  TEMP    WIND        PRES    WAVE   SWELL
                       AIR SEA DIR/SP/G            HT/PER HT/PER
                 (UTC) (F)     (DEG/KT/KT) (MB)    (FT/S) (FT/S)
44066 TX TWR #4  1100   70 74  320/ 12/ 14 1008.9R   5/ 6   3/ 6
CAPE MAY NJ      1100   68 78  340/  6/ 10 1010.9R
LEWES DE         1100   66 72  290/ 11/ 14 1011.1R
15NM E FENWICK I 1100   70 73              1011.2R   3/ 7
OCEAN-CITY-INLET 1100   67 72  330/  7/  8 1011.0R
WACHAPREAGUE VA  1100   69 79   10/  3/  5 1012.0R
THOMAS POINT MD  1100   65 78  310/ 14/ 16 1012.9R
GOOSES REEF MD   1100   67     330/ 14/ 16 1012.8R
COVE POINT MD    1100   66     320/ 11/ 16 1012.3R
SOLOMONS ISLAND  1100      79                N/A
BISHOPS HEAD MD  1100   68 75  330/  7/  9 1011.7R
PINEY POINT MD   1100          330/ 16/ 18   N/A
POTOMAC MD       1100   69     340/ 14/ 17 1011.8R
CAMBRIDGE MD     1100   68 78  360/  7/  9 1011.9R
LEWISETTA VA     1100   69 78  320/  8/ 10 1012.5R
RAPPAHANNOCK LGT 1100          320/ 17/ 19 1012.5R
STINGRAY PT      1100   69     330/ 12/ 16 1012.8R
YORK RVR RNG VA  1100   69     340/ 10/ 12 1011.8R
YORKTOWN VA      1100   68 79  330/ 11/ 12 1012.4R
JAMESTOWN VA     1100   68     360/  6/ 10   N/A
DOMINION TERM VA 1100   69     350/  8/ 11 1012.4R
KIPTOPEKE VA     1100      81   10/  8/ 11   N/A
CHES BAY BRIDGE  1100   72 78  330/ 12/ 14 1011.7R
CAPE HENRY VA    1100   72     320/ 11/ 13 1010.9R
WILLOUBY STN VA  1100          340/ 11/ 13 1011.6R
S CRANEY ISL VA  1100          320/  7/  9 1012.4R
CAPE HENRY BUOY  1000      76                N/A     3/ 4
1ST LANDING BUOY 1100   72     330/ 12/ 14 1011.8R
CAPE CHARLES BUO 1100      73                N/A     2/ 9
OFFSHORE WE BUOY 1000      77                N/A     3/ 4
64NM E OF VA BCH 1100   74 78  360/ 14/ 16 1010.6R   3/ 5   2/ 8
DUCK PIER NC     1100   71 70  330/ 12/ 12 1010.7F
44056 DUCK FRF   1000                        N/A     3/ 5
OREGON INLET NC  1100   74 79  360/  8/ 11 1011.1S
HATTERAS NC      1100   77 81   40/  7/  9 1011.6S
DIAMOND SHLS NC  1100          VRB 10/ 12  1010.7R   3/ 8   3/ 8
CAPE LOOKOUT NC  1000   74     360/  8/  9 1011.1R
$$


USA.gov is the U.S. government's official web portal to all federal, state and local government web resources and services.